H1 CPF 2 NER 2022 3 10 9 069 01 glonass135 H2 1600801 9135 41330 2022 3 10 0 0 0 2022 3 13 23 45 0 900 1 1 0 0 0 1 H9 10 0 59648 0.00000 0 -23762061.403 -9023009.222 2345834.493 10 0 59648 900.00000 0 -23354040.331 -8692354.395 5534058.603 10 0 59648 1800.00000 0 -22546330.759 -8310274.488 8615003.176 10 0 59648 2700.00000 0 -21348206.517 -7934484.134 11528955.997 10 0 59648 3600.00000 0 -19782264.949 -7620502.043 14219444.391 10 0 59648 4500.00000 0 -17883630.050 -7419113.655 16634323.002 10 0 59648 5400.00000 0 -15698648.616 -7374043.373 18726777.917 10 0 59648 6300.00000 0 -13283133.038 -7519934.273 20456228.345 10 0 59648 7200.00000 0 -10700223.098 -7880720.312 21789109.007 10 0 59648 8100.00000 0 -8017954.577 -8468459.692 22699518.737 10 0 59648 9000.00000 0 -5306634.547 -9282678.967 23169723.220 10 0 59648 9900.00000 0 -2636131.154 -10310256.266 23190502.320 10 0 59648 10800.00000 0 -73189.167 -11525849.768 22761335.279 10 0 59648 11700.00000 0 2321118.386 -12892854.931 21890419.810 10 0 59648 12600.00000 0 4493697.522 -14364851.969 20594524.033 10 0 59648 13500.00000 0 6401404.395 -15887484.538 18898673.199 10 0 59648 14400.00000 0 8012598.670 -17400692.380 16835676.112 10 0 59648 15300.00000 0 9308214.656 -18841205.448 14445499.281 10 0 59648 16200.00000 0 10282305.648 -20145195.590 11774499.816 10 0 59648 17100.00000 0 10942038.856 -21250974.733 8874530.982 10 0 59648 18000.00000 0 11307141.184 -22101625.874 5801937.226 10 0 59648 18900.00000 0 11408819.439 -22647455.431 2616457.945 10 0 59648 19800.00000 0 11288200.952 -22848162.738 -619938.600 10 0 59648 20700.00000 0 10994360.947 -22674633.784 -3844267.859 10 0 59648 21600.00000 0 10582021.044 -22110282.167 -6993763.701 10 0 59648 22500.00000 0 10109017.321 -21151879.455 -10007110.097 10 0 59648 23400.00000 0 9633646.412 -19809838.791 -12825644.593 10 0 59648 24300.00000 0 9212003.262 -18107938.904 -15394509.019 10 0 59648 25200.00000 0 8895424.536 -16082499.449 -17663724.146 10 0 59648 26100.00000 0 8728146.947 -13781042.126 -19589166.587 10 0 59648 27000.00000 0 8745280.421 -11260493.726 -21133428.664 10 0 59648 27900.00000 0 8971182.304 -8585006.417 -22266544.492 10 0 59648 28800.00000 0 9418301.549 -5823486.721 -22966568.413 10 0 59648 29700.00000 0 10086541.676 -3046936.404 -23219995.142 10 0 59648 30600.00000 0 10963169.183 -325716.073 -23022014.141 10 0 59648 31500.00000 0 12023270.974 2273154.742 -22376594.050 10 0 59648 32400.00000 0 13230741.243 4688549.346 -21296396.317 10 0 59648 33300.00000 0 14539756.028 6867532.248 -19802520.353 10 0 59648 34200.00000 0 15896673.200 8767309.693 -17924085.716 10 0 59648 35100.00000 0 17242277.936 10356752.750 -15697659.839 10 0 59648 36000.00000 0 18514279.352 11617431.281 -13166542.672 10 0 59648 36900.00000 0 19649953.406 12544117.486 -10379922.291 10 0 59648 37800.00000 0 20588821.290 13144740.018 -7391917.969 10 0 59648 38700.00000 0 21275250.922 13439792.483 -4260529.236 10 0 59648 39600.00000 0 21660872.501 13461222.849 -1046511.406 10 0 59648 40500.00000 0 21706706.878 13250851.936 2187800.666 10 0 59648 41400.00000 0 21384917.500 12858388.699 5379697.951 10 0 59648 42300.00000 0 20680112.486 12339126.641 8467308.355 10 0 59648 43200.00000 0 19590142.147 11751418.948 11390790.424 10 0 59648 44100.00000 0 18126358.300 11154038.851 14093486.860 10 0 59648 45000.00000 0 16313324.099 10603536.394 16523015.880 10 0 59648 45900.00000 0 14187985.869 10151702.662 18632279.912 10 0 59648 46800.00000 0 11798340.602 9843247.924 20380372.754 10 0 59648 47700.00000 0 9201653.611 9713791.071 21733368.226 10 0 59648 48600.00000 0 6462299.257 9788244.764 22664975.717 10 0 59648 49500.00000 0 3649313.071 10079664.225 23157050.381 10 0 59648 50400.00000 0 833755.609 10588608.417 23199948.350 10 0 59648 51300.00000 0 -1914004.006 11303041.138 22792720.045 10 0 59648 52200.00000 0 -4526973.413 12198777.252 21943137.508 10 0 59648 53100.00000 0 -6944080.772 13240456.524 20667554.543 10 0 59648 54000.00000 0 -9112472.189 14383005.638 18990601.450 10 0 59648 54900.00000 0 -10989467.887 15573528.332 16944719.154 10 0 59648 55800.00000 0 -12544095.936 16753545.435 14569540.559 10 0 59648 56700.00000 0 -13758139.738 17861491.512 11911130.036 10 0 59648 57600.00000 0 -14626655.543 18835363.497 9021094.801 10 0 59648 58500.00000 0 -15157938.249 19615409.708 5955584.865 10 0 59648 59400.00000 0 -15372937.113 20146745.463 2774200.719 10 0 59648 60300.00000 0 -15304146.173 20381783.992 -461169.924 10 0 59648 61200.00000 0 -14994016.543 20282378.643 -3687563.086 10 0 59648 62100.00000 0 -14492958.474 19821584.668 -6842172.750 10 0 59648 63000.00000 0 -13857018.488 18984964.587 -9863583.334 10 0 59648 63900.00000 0 -13145331.007 17771380.743 -12692975.099 10 0 59648 64800.00000 0 -12417453.498 16193240.383 -15275277.993 10 0 59648 65700.00000 0 -11730699.053 14276181.980 -17560250.509 10 0 59648 66600.00000 0 -11137580.295 12058215.404 -19503461.795 10 0 59648 67500.00000 0 -10683473.459 9588351.625 -21067157.623 10 0 59648 68400.00000 0 -10404601.866 6924779.234 -22220993.328 10 0 59648 69300.00000 0 -10326424.072 4132664.054 -22942619.722 10 0 59648 70200.00000 0 -10462494.571 1281663.768 -23218111.143 10 0 59648 71100.00000 0 -10813844.697 -1556738.961 -23042228.058 10 0 59648 72000.00000 0 -11368909.203 -4311973.916 -22418509.832 10 0 59648 72900.00000 0 -12104000.985 -6917077.904 -21359196.679 10 0 59648 73800.00000 0 -12984313.302 -9311235.199 -19884982.943 10 0 59648 74700.00000 0 -13965406.718 -11442059.098 -18024607.105 10 0 59648 75600.00000 0 -14995117.743 -13267521.050 -15814286.844 10 0 59648 76500.00000 0 -16015808.553 -14757448.557 -13297010.405 10 0 59648 77400.00000 0 -16966862.912 -15894531.055 -10521698.206 10 0 59648 78300.00000 0 -17787323.242 -16674793.653 -7542251.037 10 0 59648 79200.00000 0 -18418557.879 -17107520.739 -4416503.309 10 0 59648 80100.00000 0 -18806846.390 -17214634.345 -1205101.727 10 0 59648 81000.00000 0 -18905774.265 -17029554.940 2029668.917 10 0 59648 81900.00000 0 -18678336.354 -16595593.778 5225090.176 10 0 59648 82800.00000 0 -18098660.634 -15963945.369 8319221.300 10 0 59648 83700.00000 0 -17153279.787 -15191365.164 11252094.281 10 0 59648 84600.00000 0 -15841896.930 -14337630.499 13966869.837 10 0 59648 85500.00000 0 -14177612.942 -13462891.621 16410932.274 10 0 59649 0.00000 0 -12186605.340 -12625024.114 18536902.498 10 0 59649 900.00000 0 -9907269.977 -11877093.158 20303551.307 10 0 59649 1800.00000 0 -7388862.966 -11265036.904 21676593.091 10 0 59649 2700.00000 0 -4689694.387 -10825664.297 22629349.061 10 0 59649 3600.00000 0 -1874949.950 -10585052.322 23143264.698 10 0 59649 4500.00000 0 985771.467 -10557409.373 23208272.818 10 0 59649 5400.00000 0 3821103.615 -10744452.815 22822995.048 10 0 59649 6300.00000 0 6560633.713 -11135327.341 21994777.428 10 0 59649 7200.00000 0 9137586.582 -11707068.402 20739558.776 10 0 59649 8100.00000 0 11491361.657 -12425592.243 19081573.499 10 0 59649 9000.00000 0 13569818.142 -13247172.033 17052893.400 10 0 59649 9900.00000 0 15331213.489 -14120339.064 14692816.262 10 0 59649 10800.00000 0 16745714.577 -14988129.830 12047111.916 10 0 59649 11700.00000 0 17796418.426 -15790584.821 9167139.424 10 0 59649 12600.00000 0 18479839.510 -16467393.762 6108851.979 10 0 59649 13500.00000 0 18805843.233 -16960575.294 2931708.526 10 0 59649 14400.00000 0 18797028.329 -17217077.142 -302486.620 10 0 59649 15300.00000 0 18487584.473 -17191185.742 -3530792.983 10 0 59649 16200.00000 0 17921673.664 -16846641.916 -6690367.629 10 0 59649 17100.00000 0 17151404.550 -16158371.667 -9719698.323 10 0 59649 18000.00000 0 16234486.289 -15113757.596 -12559810.833 10 0 59649 18900.00000 0 15231662.095 -13713395.662 -15155425.836 10 0 59649 19800.00000 0 14204032.097 -11971304.208 -17456041.946 10 0 59649 20700.00000 0 13210379.647 -9914575.543 -19416923.007 10 0 59649 21600.00000 0 12304614.815 -7582484.020 -20999970.114 10 0 59649 22500.00000 0 11533443.468 -5025087.589 -22174461.374 10 0 59649 23400.00000 0 10934360.411 -2301381.168 -22917645.246 10 0 59649 24300.00000 0 10534050.954 522921.162 -23215176.505 10 0 59649 25200.00000 0 10347267.704 3377882.769 -23061387.024 10 0 59649 26100.00000 0 10376229.063 6192016.018 -22459386.910 10 0 59649 27000.00000 0 10610563.801 8895017.943 -21420994.781 10 0 59649 27900.00000 0 11027802.977 11420456.848 -19966499.209 10 0 59649 28800.00000 0 11594397.552 13708298.816 -18124256.542 10 0 59649 29700.00000 0 12267217.933 15707170.096 -15930133.326 10 0 59649 30600.00000 0 12995471.630 17376262.488 -13426804.392 10 0 59649 31500.00000 0 13722957.682 18686803.692 -10662920.459 10 0 59649 32400.00000 0 14390562.566 19623032.914 -7692161.484 10 0 59649 33300.00000 0 14938892.204 20182642.620 -4572194.120 10 0 59649 34200.00000 0 15310929.088 20376669.521 -1363553.582 10 0 59649 35100.00000 0 15454602.578 20228840.898 1871528.433 10 0 59649 36000.00000 0 15325164.104 19774404.997 5070327.182 10 0 59649 36900.00000 0 14887267.281 19058495.622 8170836.350 10 0 59649 37800.00000 0 14116665.297 18134100.403 11112964.380 10 0 59649 38700.00000 0 13001453.963 17059718.482 13839692.838 10 0 59649 39600.00000 0 11542807.791 15896806.166 16298174.746 10 0 59649 40500.00000 0 9755177.523 14707117.631 18440752.223 10 0 59649 41400.00000 0 7665939.797 13550051.930 20225874.409 10 0 59649 42300.00000 0 5314512.407 12480117.088 21618898.488 10 0 59649 43200.00000 0 2750970.508 11544617.043 22592758.968 10 0 59649 44100.00000 0 34219.671 10781657.851 23128492.737 10 0 59649 45000.00000 0 -2770199.899 10218556.336 23215609.964 10 0 59649 45900.00000 0 -5592588.597 9870717.660 22852303.669 10 0 59649 46800.00000 0 -8361740.988 9741028.972 22045493.547 10 0 59649 47700.00000 0 -11007668.919 9819794.878 20810702.574 10 0 59649 48600.00000 0 -13464282.267 10085218.048 19171767.851 10 0 59649 49500.00000 0 -15671916.756 10504405.461 17160390.172 10 0 59649 50400.00000 0 -17579603.999 11034858.777 14815529.885 10 0 59649 51300.00000 0 -19146989.374 11626386.778 12182659.624 10 0 59649 52200.00000 0 -20345817.472 12223359.688 9312887.431 10 0 59649 53100.00000 0 -21160922.717 12767210.453 6261966.682 10 0 59649 54000.00000 0 -21590683.355 13199077.054 3089211.753 10 0 59649 54900.00000 0 -21646919.468 13462473.492 -143659.426 10 0 59649 55800.00000 0 -21354239.206 13505875.396 -3373732.815 10 0 59649 56700.00000 0 -20748860.982 13285109.450 -6538131.418 10 0 59649 57600.00000 0 -19876961.823 12765444.067 -9575249.076 10 0 59649 58500.00000 0 -18792622.285 11923291.240 -12425959.649 10 0 59649 59400.00000 0 -17555455.645 10747446.155 -15034776.946 10 0 59649 60300.00000 0 -16228022.434 9239810.818 -17350941.857 10 0 59649 61200.00000 0 -14873140.422 7415570.009 -19329414.754 10 0 59649 62100.00000 0 -13551204.319 5302811.297 -20931753.543 10 0 59649 63000.00000 0 -12317628.730 2941604.341 -22126860.198 10 0 59649 63900.00000 0 -11220522.252 382577.695 -22891581.520 10 0 59649 64800.00000 0 -10298690.400 -2314947.678 -23211152.989 10 0 59649 65700.00000 0 -9580050.773 -5085190.498 -23079477.763 10 0 59649 66600.00000 0 -9080526.194 -7858413.931 -22499236.161 10 0 59649 67500.00000 0 -8803461.159 -10563599.039 -21481824.297 10 0 59649 68400.00000 0 -8739584.798 -13131176.070 -20047123.703 10 0 59649 69300.00000 0 -8867520.546 -15495700.500 -18223107.013 10 0 59649 70200.00000 0 -9154819.772 -17598363.266 -16045287.779 10 0 59649 71100.00000 0 -9559474.704 -19389231.727 -13556025.357 10 0 59649 72000.00000 0 -10031845.967 -20829129.039 -10803698.568 10 0 59649 72900.00000 0 -10516922.795 -21891074.917 -7841764.255 10 0 59649 73800.00000 0 -10956820.094 -22561229.014 -4727718.999 10 0 59649 74700.00000 0 -11293406.754 -22839298.825 -1521984.214 10 0 59649 75600.00000 0 -11470954.181 -22738396.425 1713263.820 10 0 59649 76500.00000 0 -11438693.273 -22284351.286 4915296.379 10 0 59649 77400.00000 0 -11153172.005 -21514508.954 8022043.919 10 0 59649 78300.00000 0 -10580314.228 -20476066.816 10973293.688 10 0 59649 79200.00000 0 -9697092.787 -19224017.209 13711850.434 10 0 59649 80100.00000 0 -8492746.275 -17818784.368 16184638.168 10 0 59649 81000.00000 0 -6969487.698 -16323654.167 18343722.192 10 0 59649 81900.00000 0 -5142674.412 -14802103.993 20147232.316 10 0 59649 82800.00000 0 -3040431.061 -13315144.046 21560169.988 10 0 59649 83700.00000 0 -702739.739 -11918780.665 22555084.366 10 0 59649 84600.00000 0 1819966.412 -10661707.081 23112604.747 10 0 59649 85500.00000 0 4468649.424 -9583317.589 23221819.271 10 0 59650 0.00000 0 7177877.415 -8712127.729 22880492.651 10 0 59650 900.00000 0 9878311.653 -8064665.873 22095118.082 10 0 59650 1800.00000 0 12499364.301 -7644883.678 20880802.274 10 0 59650 2700.00000 0 14971922.632 -7444108.709 19260984.285 10 0 59650 3600.00000 0 17231023.791 -7441542.796 17266992.862 10 0 59650 4500.00000 0 19218370.687 -7605285.140 14937449.573 10 0 59650 5400.00000 0 20884584.097 -7893837.643 12317528.211 10 0 59650 6300.00000 0 22191096.857 -8258029.374 9458083.825 10 0 59650 7200.00000 0 23111610.403 -8643279.087 6414667.683 10 0 59650 8100.00000 0 23633052.123 -8992099.935 3246446.995 10 0 59650 9000.00000 0 23755992.992 -9246739.984 15050.448 10 0 59650 9900.00000 0 23494507.345 -9351845.750 -3216637.371 10 0 59650 10800.00000 0 22875480.544 -9257034.701 -6385708.478 10 0 59650 11700.00000 0 21937393.995 -8919266.350 -9430465.842 10 0 59650 12600.00000 0 20728639.116 -8304910.009 -12291634.334 10 0 59650 13500.00000 0 19305432.045 -7391420.151 -14913523.603 10 0 59650 14400.00000 0 17729417.815 -6168547.008 -17245119.272 10 0 59650 15300.00000 0 16065065.891 -4639030.105 -19241080.439 10 0 59650 16200.00000 0 14376967.565 -2818744.392 -20862623.713 10 0 59650 17100.00000 0 12727149.549 -736291.969 -22078276.528 10 0 59650 18000.00000 0 11172516.999 1567943.983 -22864485.294 10 0 59650 18900.00000 0 9762533.314 4043243.928 -23206067.117 10 0 59650 19800.00000 0 8537233.566 6630435.254 -23096496.986 10 0 59650 20700.00000 0 7525654.056 9264135.643 -22538025.606 10 0 59650 21600.00000 0 6744742.629 11875263.301 -21541626.371 10 0 59650 22500.00000 0 6198793.935 14393709.797 -20126773.174 10 0 59650 23400.00000 0 5879431.764 16751064.543 -18321053.963 10 0 59650 24300.00000 0 5766137.513 18883278.094 -16159627.956 10 0 59650 25200.00000 0 5827301.000 20733154.052 -13684537.335 10 0 59650 26100.00000 0 6021748.040 22252566.525 -10943886.973 10 0 59650 27000.00000 0 6300679.281 23404311.671 -7990908.222 10 0 59650 27900.00000 0 6609937.693 24163517.130 -4882924.920 10 0 59650 28800.00000 0 6892508.450 24518551.520 -1680241.757 10 0 59650 29700.00000 0 7091145.302 24471397.120 1555023.488 10 0 59650 30600.00000 0 7151012.409 24037471.182 4760141.296 10 0 59650 31500.00000 0 7022230.035 23244904.262 7872982.074 10 0 59650 32400.00000 0 6662216.686 22133306.534 10833214.956 10 0 59650 33300.00000 0 6037728.845 20752074.219 13583470.816 10 0 59650 34200.00000 0 5126512.204 19158307.298 16070447.386 10 0 59650 35100.00000 0 3918494.495 17414425.553 18245935.642 10 0 59650 36000.00000 0 2416469.084 15585582.349 20067748.291 10 0 59650 36900.00000 0 636239.664 13736983.710 21500532.961 10 0 59650 37800.00000 0 -1393781.389 11931223.974 22516455.039 10 0 59650 38700.00000 0 -3633505.885 10225748.439 23095737.424 10 0 59650 39600.00000 0 -6032596.814 8670548.149 23227046.997 10 0 59650 40500.00000 0 -8532331.982 7306182.303 22907720.334 10 0 59650 41400.00000 0 -11067828.693 6162210.248 22143824.004 10 0 59650 42300.00000 0 -13570538.619 5256098.256 20950047.618 10 0 59650 43200.00000 0 -15970910.630 4592646.572 19349430.818 10 0 59650 44100.00000 0 -18201111.872 4163960.763 17372928.379 10 0 59650 45000.00000 0 -20197694.434 3949968.749 15058820.690 10 0 59650 45900.00000 0 -21904096.636 3919461.951 12451979.905 10 0 59650 46800.00000 0 -23272874.369 4031616.926 9603004.986 10 0 59650 47700.00000 0 -24267568.569 4237933.317 6567241.824 10 0 59650 48600.00000 0 -24864130.028 4484506.087 3403707.125 10 0 59650 49500.00000 0 -25051840.916 4714535.416 173937.031 10 0 59650 50400.00000 0 -24833693.504 4870967.156 -3059216.570 10 0 59650 51300.00000 0 -24226209.778 4899150.902 -6232817.817 10 0 59650 52200.00000 0 -23258709.174 4749401.608 -9285081.771 10 0 59650 53100.00000 0 -21972055.425 4379354.750 -12156587.095 10 0 59650 54000.00000 0 -20416935.745 3756013.789 -14791441.829 10 0 59650 54900.00000 0 -18651745.313 2857401.753 -17138378.598 10 0 59650 55800.00000 0 -16740166.935 1673745.864 -19151757.130 10 0 59650 56700.00000 0 -14748548.403 208144.070 -20792454.218 10 0 59650 57600.00000 0 -12743188.354 -1523315.516 -22028623.739 10 0 59650 58500.00000 0 -10787644.976 -3491987.944 -22836312.181 10 0 59650 59400.00000 0 -8940180.407 -5657639.836 -23199918.217 10 0 59650 60300.00000 0 -7251447.525 -7969912.732 -23112488.110 10 0 59650 61200.00000 0 -5762515.241 -10370220.324 -22575841.931 10 0 59650 62100.00000 0 -4503313.750 -12794000.619 -21600528.923 10 0 59650 63000.00000 0 -3491563.310 -15173229.323 -20205613.565 10 0 59650 63900.00000 0 -2732229.726 -17439089.839 -18418297.062 10 0 59650 64800.00000 0 -2217527.460 -19524689.000 -16273382.035 10 0 59650 65700.00000 0 -1927468.383 -21367705.816 -13812591.087 10 0 59650 66600.00000 0 -1830931.385 -22912863.279 -11083752.681 10 0 59650 67500.00000 0 -1887206.307 -24114120.820 -8139870.212 10 0 59650 68400.00000 0 -2047945.866 -24936496.638 -5038092.361 10 0 59650 69300.00000 0 -2259442.357 -25357444.550 -1838604.756 10 0 59650 70200.00000 0 -2465132.360 -25367728.639 1396535.572 10 0 59650 71100.00000 0 -2608223.312 -24971759.953 4604600.461 10 0 59650 72000.00000 0 -2634330.846 -24187381.824 7723402.366 10 0 59650 72900.00000 0 -2494015.503 -23045113.423 10692494.337 10 0 59650 73800.00000 0 -2145111.732 -21586883.575 13454335.341 10 0 59650 74700.00000 0 -1554750.949 -19864307.946 15955398.701 10 0 59650 75600.00000 0 -700993.210 -17936581.559 18147202.813 10 0 59650 76500.00000 0 426001.606 -15868074.251 19987244.834 10 0 59650 77400.00000 0 1823313.011 -13725728.930 21439819.895 10 0 59650 78300.00000 0 3475138.367 -11576370.311 22476710.657 10 0 59650 79200.00000 0 5353217.114 -9484035.428 23077734.350 10 0 59650 80100.00000 0 7417784.736 -7507436.224 23231136.993 10 0 59650 81000.00000 0 9619018.534 -5697659.018 22933827.162 10 0 59650 81900.00000 0 11898916.926 -4096195.921 22191444.509 10 0 59650 82800.00000 0 14193535.765 -2733389.684 21018261.038 10 0 59650 83700.00000 0 16435490.152 -1627356.462 19436916.192 10 0 59650 84600.00000 0 18556618.850 -783431.238 17477989.742 10 0 59650 85500.00000 0 20490700.940 -194159.117 15179419.616 10 0 59651 0.00000 0 22176111.644 160167.192 12585775.029 10 0 59651 900.00000 0 23558307.073 310446.415 9747396.587 10 0 59651 1800.00000 0 24592031.164 297228.604 6719422.954 10 0 59651 2700.00000 0 25243154.597 168761.768 3560717.992 10 0 59651 3600.00000 0 25490065.240 -21292.254 332722.714 10 0 59651 4500.00000 0 25324551.633 -216375.037 -2901746.424 10 0 59651 5400.00000 0 24752141.252 -359674.292 -6079728.526 10 0 59651 6300.00000 0 23791878.692 -396778.753 -9139353.576 10 0 59651 7200.00000 0 22475552.981 -278231.388 -12021056.753 10 0 59651 8100.00000 0 20846406.368 38128.794 -14668747.039 10 0 59651 9000.00000 0 18957379.258 585136.929 -17030906.396 10 0 59651 9900.00000 0 16868965.628 1384671.599 -19061597.264 10 0 59651 10800.00000 0 14646769.587 2446493.315 -20721358.447 10 0 59651 11700.00000 0 12358866.172 3767602.087 -21977971.854 10 0 59651 12600.00000 0 10073077.471 5332141.742 -22807085.381 10 0 59651 13500.00000 0 7854278.228 7111855.572 -23192680.333 10 0 59651 14400.00000 0 5761843.378 9067074.489 -23127375.006 10 0 59651 15300.00000 0 3847343.640 11148196.474 -22612559.253 10 0 59651 16200.00000 0 2152584.401 13297595.575 -21658358.220 10 0 59651 17100.00000 0 708068.373 15451880.831 -20283426.628 10 0 59651 18000.00000 0 -468055.354 17544410.864 -18514578.187 10 0 59651 18900.00000 0 -1370513.843 19507959.383 -16386257.769 10 0 59651 19800.00000 0 -2006884.594 21277420.633 -13939866.853 10 0 59651 20700.00000 0 -2397024.550 22792442.102 -11222955.579 10 0 59651 21600.00000 0 -2571979.729 23999874.998 -8288297.140 10 0 59651 22500.00000 0 -2572422.901 24855940.607 -5192862.510 10 0 59651 23400.00000 0 -2446686.439 25328022.436 -1996715.477 10 0 59651 24300.00000 0 -2248474.269 25396009.808 1238150.643 10 0 59651 25200.00000 0 -2034350.133 25053137.219 4449012.129 10 0 59651 26100.00000 0 -1861108.593 24306284.825 7573626.585 10 0 59651 27000.00000 0 -1783139.911 23175727.896 10551434.056 10 0 59651 27900.00000 0 -1849900.067 21694345.905 13324724.574 10 0 59651 28800.00000 0 -2103592.588 19906324.407 15839749.889 10 0 59651 29700.00000 0 -2577159.922 17865403.696 18047758.450 10 0 59651 30600.00000 0 -3292669.131 15632746.872 19905934.290 10 0 59651 31500.00000 0 -4260160.196 13274515.624 21378222.201 10 0 59651 32400.00000 0 -5477006.043 10859253.779 22436023.969 10 0 59651 33300.00000 0 -6927812.283 8455186.562 23058752.660 10 0 59651 34200.00000 0 -8584862.211 6127546.892 23234234.513 10 0 59651 35100.00000 0 -10409090.215 3936038.862 22958950.718 10 0 59651 36000.00000 0 -12351544.731 1932542.952 22238114.082 10 0 59651 36900.00000 0 -14355281.522 159157.726 21085578.505 10 0 59651 37800.00000 0 -16357609.954 -1353341.028 19523582.133 10 0 59651 38700.00000 0 -18292599.976 -2586559.901 17582328.050 10 0 59651 39600.00000 0 -20093746.079 -3535022.105 15299409.487 10 0 59651 40500.00000 0 -21696677.478 -4206154.187 12719089.527 10 0 59651 41400.00000 0 -23041801.130 -4619725.843 9891448.261 10 0 59651 42300.00000 0 -24076766.499 -4806766.524 6871413.312 10 0 59651 43200.00000 0 -24758647.868 -4808004.779 3717692.175 10 0 59651 44100.00000 0 -25055751.473 -4671896.652 491627.147 10 0 59651 45000.00000 0 -24948970.298 -4452327.189 -2744004.322 10 0 59651 45900.00000 0 -24432628.295 -4206083.330 -5926219.790 10 0 59651 46800.00000 0 -23514777.546 -3990206.420 -8993067.511 10 0 59651 47700.00000 0 -22216935.134 -3859337.873 -11884842.356 10 0 59651 48600.00000 0 -20573270.430 -3863171.855 -14545257.199 10 0 59651 49500.00000 0 -18629276.864 -4044124.260 -16922545.957 10 0 59651 50400.00000 0 -16439984.165 -4435317.882 -18970476.023 10 0 59651 51300.00000 0 -14067786.531 -5058970.054 -20649249.965 10 0 59651 52200.00000 0 -11579978.191 -5925251.661 -21926278.916 10 0 59651 53100.00000 0 -9046099.981 -7031666.229 -22776812.741 10 0 59651 54000.00000 0 -6535208.030 -8362975.617 -23184415.307 10 0 59651 54900.00000 0 -4113178.546 -9891675.691 -23141276.259 10 0 59651 55800.00000 0 -1840160.792 -11579002.033 -22648353.991 10 0 59651 56700.00000 0 231716.385 -13376423.609 -21715347.830 10 0 59651 57600.00000 0 2060290.052 -15227561.802 -20360500.618 10 0 59651 58500.00000 0 3614881.026 -17070454.510 -18610236.143 10 0 59651 59400.00000 0 4877322.564 -18840070.633 -16498638.875 10 0 59651 60300.00000 0 5842458.896 -20470969.924 -14066786.376 10 0 59651 61200.00000 0 6518094.775 -21899997.073 -11361947.577 10 0 59651 62100.00000 0 6924400.160 -23068897.578 -8436662.572 10 0 59651 63000.00000 0 7092796.908 -23926746.233 -5347721.774 10 0 59651 63900.00000 0 7064375.842 -24432086.861 -2155064.356 10 0 59651 64800.00000 0 6887912.145 -24554694.087 1079382.725 10 0 59651 65700.00000 0 6617563.723 -24276883.674 4292902.674 10 0 59651 66600.00000 0 6310350.185 -23594316.843 7423200.561 10 0 59651 67500.00000 0 6023519.174 -22516265.108 10409605.547 10 0 59651 68400.00000 0 5811911.272 -21065324.574 13194240.640 10 0 59651 69300.00000 0 5725434.547 -19276591.542 15723137.701 10 0 59651 70200.00000 0 5806755.092 -17196333.507 17947276.671 10 0 59651 71100.00000 0 6089300.798 -14880210.410 19823529.604 10 0 59651 72000.00000 0 6595662.424 -12391119.544 21315491.805 10 0 59651 72900.00000 0 7336459.555 -9796752.805 22394184.711 10 0 59651 73800.00000 0 8309719.742 -7166966.755 23038617.412 10 0 59651 74700.00000 0 9500797.869 -4571073.664 23236196.243 10 0 59651 75600.00000 0 10882840.470 -2075164.839 22982974.558 10 0 59651 76500.00000 0 12417777.157 260423.680 22283737.606 10 0 59651 77400.00000 0 14057799.371 2383398.617 21151920.214 10 0 59651 78300.00000 0 15747266.261 4251455.808 19609358.054 10 0 59651 79200.00000 0 17424959.540 5833804.883 17685876.156 10 0 59651 80100.00000 0 19026594.046 7112209.004 15418721.516 10 0 59651 81000.00000 0 20487479.688 8081496.403 12851849.626 10 0 59651 81900.00000 0 21745223.445 8749522.478 10035077.732 10 0 59651 82800.00000 0 22742357.777 9136584.106 7023120.602 10 0 59651 83700.00000 0 23428784.282 9274311.063 3874527.163 10 0 59651 84600.00000 0 23763929.044 9204081.779 650538.658 10 0 59651 85500.00000 0 23718517.423 8975030.808 -2586108.908 99